[[{"header":{"parameterUnit":"m.s-1","parameterCategory":2,"la1":30.2991,"la2":30.254,"lo1":-89.0895,"lo2":-89.0444,"dy":0.0017,"dx":0.0017,"nx":28,"ny":28,"refTime":"2023-10-03T03:00:00:Z","depth":"0","parameterNumber":2,"parameterNumberName":"U-component_of_CURRENTS"},"data":[0,0,0,0,0,0,0,0,0,0,0,0,0,0,0,0,0,0,0,0,0,0,0,0,0,0,0,0,0,0,0,0,0,0,0,0,0,0,0,0,0,0,0,0,0,0,0,0,0,0,0,0,0,0,0,0,0,0,-0.2173,-0.2174,0,-0.2243,-0.2244,-0.2245,-0.2194,-0.2191,-0.2189,-0.2187,-0.2205,-0.2207,-0.221,0,0,0,0,0,0,0,0,0,0,0,0,0,-0.2145,-0.2145,-0.2173,-0.2174,-0.2175,-0.2243,-0.2244,-0.2245,-0.2194,-0.2191,-0.2188,-0.2185,-0.2204,-0.2207,-0.221,0,0,0,0,0,0,0,0,0,0,0,0,0,-0.2183,-0.2145,-0.2173,-0.2155,-0.2154,-0.2243,-0.2244,-0.2246,-0.2195,-0.2191,-0.2188,-0.2184,-0.2202,-0.2207,-0.2211,-0.2312,0,0,-0.2224,-0.2225,0,0,0,0,0,0,0,0,-0.2181,-0.2184,-0.2157,-0.2157,-0.2156,-0.2203,-0.2241,-0.2264,-0.2196,-0.2183,-0.2187,-0.2182,-0.22,-0.2205,-0.2231,-0.2313,-0.2314,-0.2224,-0.2227,-0.2228,-0.223,0,0,0,0,0,0,0,-0.2178,-0.2182,-0.2204,-0.2158,-0.2157,-0.2195,-0.2195,-0.2246,-0.2213,-0.2183,-0.2179,-0.2184,-0.2199,-0.2227,-0.2231,-0.2314,-0.2224,-0.2228,-0.223,-0.2232,-0.2433,-0.2435,0,0,0,0,0,0,-0.216,-0.2179,-0.2201,-0.2205,-0.2156,-0.2197,-0.2198,-0.2194,-0.2213,-0.2212,-0.2187,-0.2181,-0.2222,-0.2226,-0.2231,-0.2348,-0.2228,-0.2232,-0.2235,-0.243,-0.2433,-0.2436,0,0,0,0,0,0,-0.2159,-0.2161,-0.2199,-0.2192,-0.2199,-0.22,-0.2198,-0.2197,-0.2209,-0.2216,-0.2213,-0.2195,-0.2219,-0.2225,-0.2289,-0.2347,-0.2234,-0.2238,-0.2426,-0.2431,-0.2435,-0.2584,0,0,0,0,0,0,-0.2158,-0.2161,-0.2158,-0.219,-0.2198,-0.2261,-0.2201,-0.2201,-0.2217,-0.2209,-0.2224,-0.2222,-0.2216,-0.2283,-0.2293,-0.2351,-0.2241,-0.2423,-0.2428,-0.2433,-0.2576,-0.2593,-0.2608,0,0,0,0,0,-0.2157,-0.2159,-0.2158,-0.2161,-0.2192,-0.2263,-0.2273,-0.2263,-0.2221,-0.2254,-0.2261,-0.2221,-0.2322,-0.2291,-0.2301,-0.2362,-0.242,-0.2427,-0.2433,-0.2568,-0.259,-0.2607,0,0,0,0,0,0,-0.2144,-0.2156,-0.2153,-0.2158,-0.2214,-0.2253,-0.2267,-0.2272,-0.2307,-0.2284,-0.2278,-0.2281,-0.2361,-0.2343,-0.2308,-0.2431,-0.2358,-0.2366,-0.2457,-0.2477,-0.2492,-0.243,-0.2245,0,0,0,0,0,-0.2145,-0.2141,-0.2187,-0.2194,-0.2217,-0.2248,-0.2271,-0.2278,-0.231,-0.2318,-0.2343,-0.2358,-0.2405,-0.242,-0.2462,-0.2542,-0.246,-0.2579,-0.2595,-0.2608,-0.2565,-0.2515,-0.2521,-0.2457,-0.2457,-0.2457,0,0,-0.2141,-0.2145,-0.2144,-0.2192,-0.2219,-0.2285,-0.2252,-0.2295,-0.2352,-0.232,-0.2402,-0.243,-0.2441,-0.2532,-0.2562,-0.2517,-0.2592,-0.2616,-0.2628,-0.2575,-0.2522,-0.2527,-0.2532,-0.2461,-0.246,-0.246,0,0,-0.2144,-0.2141,-0.2151,-0.2209,-0.2261,-0.2301,-0.2316,-0.2383,-0.2407,-0.2508,-0.2494,-0.2549,-0.2629,-0.2652,-0.2668,-0.2795,-0.2689,-0.281,-0.2835,-0.2791,-0.2794,-0.2796,-0.2726,-0.2721,-0.2806,-0.2806,-0.2807,0,-0.2142,-0.2154,-0.2176,-0.2225,-0.2261,-0.2309,-0.2362,-0.2431,-0.2519,-0.253,-0.2542,-0.264,-0.2682,-0.2744,-0.28,-0.2831,-0.276,-0.2769,-0.2808,-0.2808,-0.2807,-0.2735,-0.2726,-0.2814,-0.2813,-0.2813,-0.2812,0,-0.2166,-0.2195,-0.2212,-0.2281,-0.2342,-0.2394,-0.2489,-0.2553,-0.259,-0.2636,-0.2714,-0.2786,-0.2805,-0.2872,-0.2885,-0.2916,-0.2855,-0.2845,-0.2752,-0.2822,-0.2742,-0.2731,-0.2826,-0.2823,-0.2821,-0.2819,0,0,-0.21,-0.2204,-0.2206,-0.2245,-0.2365,-0.2412,-0.252,-0.2602,-0.2613,-0.2739,-0.2741,-0.29,-0.2886,-0.2901,-0.2935,-0.2931,-0.2927,-0.2886,-0.288,-0.2802,-0.2786,-0.2755,-0.2738,-0.291,-0.2908,-0.2907,-0.2742,0,-0.2106,-0.2178,-0.2237,-0.233,-0.2381,-0.2465,-0.255,-0.2634,-0.2691,-0.2725,-0.2793,-0.2834,-0.2914,-0.2916,-0.2935,-0.2921,-0.2896,-0.2969,-0.2739,-0.2731,-0.2683,-0.2725,-0.2622,-0.2466,-0.273,-0.2728,-0.2726,0,-0.2099,-0.2146,-0.222,-0.2322,-0.2345,-0.2417,-0.2485,-0.257,-0.2639,-0.2672,-0.2711,-0.2743,-0.2796,-0.2833,-0.2818,-0.2849,-0.2813,-0.2805,-0.2797,-0.2688,-0.2677,-0.2434,-0.2433,-0.2421,-0.2707,-0.2708,-0.271,0,-0.2011,-0.2126,-0.2165,-0.2213,-0.2352,-0.2377,-0.244,-0.2527,-0.2566,-0.2605,-0.2606,-0.2657,-0.2668,-0.2654,-0.2703,-0.2724,-0.264,-0.2657,-0.2585,-0.2581,-0.2402,-0.2386,-0.2338,-0.2588,-0.2589,-0.2589,-0.259,0,-0.1981,-0.2014,-0.2121,-0.2152,-0.2191,-0.2301,-0.2327,-0.2394,-0.2445,-0.2471,-0.2549,-0.2564,-0.2619,-0.2612,-0.2628,-0.2578,-0.2574,-0.2562,-0.2533,-0.2459,-0.245,-0.2357,-0.2388,-0.2583,-0.2584,-0.2586,-0.2587,0,-0.1893,-0.1964,-0.202,-0.2129,-0.2159,-0.218,-0.2275,-0.2289,-0.2351,-0.2371,-0.2381,-0.246,-0.246,-0.2501,-0.2468,-0.2473,-0.2388,-0.2408,-0.2318,-0.2283,-0.2205,-0.2249,-0.2105,-0.2048,-0.2261,-0.226,-0.2258,0,-0.1858,-0.1874,-0.1975,-0.1997,-0.2045,-0.2095,-0.2131,-0.2228,-0.2254,-0.2326,-0.2325,-0.2336,-0.2355,-0.2303,-0.2294,-0.2245,-0.2286,-0.2124,-0.217,-0.2166,-0.2192,-0.2225,-0.219,-0.1991,-0.1988,-0.1985,-0.1982,0,-0.1788,-0.1814,-0.1858,-0.1899,-0.1938,-0.1982,-0.2042,-0.205,-0.2157,-0.2176,-0.22,-0.2204,-0.2189,-0.2121,-0.2083,-0.2056,-0.2073,-0.2062,-0.2065,-0.1976,-0.1992,-0.1934,-0.2135,-0.1956,-0.1959,-0.1961,-0.1962,-0.1963,-0.1719,-0.1721,-0.1763,-0.1791,-0.1831,-0.1844,-0.1832,-0.1903,-0.1916,-0.1933,-0.2024,-0.2009,-0.2007,-0.1938,-0.191,-0.181,-0.1873,-0.1765,-0.1812,-0.1841,-0.1809,-0.196,-0.1766,-0.1767,-0.1768,-0.1769,-0.177,0,-0.1628,-0.1633,-0.1654,-0.1678,-0.1662,-0.1723,-0.1751,-0.1718,-0.1694,-0.1765,-0.1768,-0.1786,-0.1718,-0.1734,-0.1661,-0.1591,-0.1556,-0.156,-0.1569,-0.1541,-0.1647,-0.1662,-0.1428,-0.1428,-0.1429,-0.1429,-0.1429,-0.1429,-0.1583,-0.1552,-0.1558,-0.1494,-0.1503,-0.1439,-0.1421,-0.1396,-0.1417,-0.1402,-0.1445,-0.1526,-0.1561,-0.168,-0.1587,-0.1507,-0.1484,-0.1421,-0.1467,-0.1556,-0.1579,-0.1601,-0.1623,-0.1384,-0.1385,-0.1279,-0.1278,-0.1278]},{"header":{"parameterUnit":"m.s-1","parameterCategory":2,"la1":30.2991,"la2":30.254,"lo1":-89.0895,"lo2":-89.0444,"dy":0.0017,"dx":0.0017,"nx":28,"ny":28,"refTime":"2023-10-03T03:00:00:Z","depth":"0","parameterNumber":3,"parameterNumberName":"V-component_of_CURRENTS"},"data":[0,0,0,0,0,0,0,0,0,0,0,0,0,0,0,0,0,0,0,0,0,0,0,0,0,0,0,0,0,0,0,0,0,0,0,0,0,0,0,0,0,0,0,0,0,0,0,0,0,0,0,0,0,0,0,0,0,0,0.0095,0.0096,0,0.0177,0.0178,0.0179,0.0227,0.0227,0.0227,0.0227,0.036,0.0363,0.0367,0,0,0,0,0,0,0,0,0,0,0,0,0,0.0008,0.0009,0.0095,0.0096,0.0097,0.0177,0.0178,0.0179,0.0227,0.0227,0.0227,0.0227,0.0359,0.0363,0.0367,0,0,0,0,0,0,0,0,0,0,0,0,0,0.0064,0.001,0.0095,0.013,0.0133,0.0176,0.0178,0.0179,0.0227,0.0227,0.0227,0.0227,0.0358,0.0363,0.0368,0.0397,0,0,0.0383,0.0386,0,0,0,0,0,0,0,0,0.0061,0.0068,0.0124,0.0127,0.0132,0.0191,0.0196,0.0254,0.0227,0.0193,0.0227,0.0227,0.0307,0.0317,0.0333,0.0403,0.0409,0.0384,0.0387,0.0389,0.0391,0,0,0,0,0,0,0,0.0057,0.0064,0.0129,0.0124,0.0129,0.015,0.0158,0.0207,0.025,0.0196,0.0199,0.0206,0.031,0.0327,0.0336,0.0411,0.0384,0.0388,0.0392,0.0394,0.0547,0.0548,0,0,0,0,0,0,0.0043,0.0061,0.0126,0.0131,0.0095,0.0151,0.0161,0.0173,0.0248,0.0259,0.0206,0.0208,0.0318,0.033,0.0341,0.0391,0.0389,0.0394,0.0397,0.0546,0.0547,0.0548,0,0,0,0,0,0,0.0041,0.0049,0.0123,0.0096,0.0107,0.0152,0.0166,0.0174,0.0188,0.0256,0.0268,0.0211,0.0319,0.0334,0.0391,0.0396,0.0396,0.0401,0.0545,0.0546,0.0547,0.0484,0,0,0,0,0,0,0.0038,0.0047,0.0047,0.0096,0.0108,0.0135,0.0166,0.0176,0.0192,0.0195,0.0264,0.0277,0.032,0.0383,0.0396,0.0403,0.0405,0.0543,0.0545,0.0547,0.0485,0.0483,0.0482,0,0,0,0,0,0.0035,0.0029,0.0047,0.0054,0.0108,0.0134,0.0142,0.0176,0.0192,0.0191,0.025,0.0274,0.0404,0.0387,0.0403,0.0412,0.0543,0.0545,0.0547,0.0486,0.0484,0.0482,0,0,0,0,0,0,-0.002,0.0034,0.0055,0.0063,0.0092,0.0142,0.0142,0.017,0.0214,0.0219,0.0286,0.0303,0.0358,0.0396,0.0377,0.0464,0.0477,0.0483,0.0426,0.0424,0.0423,0.0384,0.0409,0,0,0,0,0,-0.0029,-0.0015,0.0034,0.0037,0.0049,0.0096,0.011,0.0133,0.018,0.0199,0.0251,0.0315,0.038,0.0408,0.0467,0.0509,0.0529,0.0527,0.0525,0.0523,0.0505,0.0543,0.0542,0.0555,0.0555,0.0555,0,0,-0.0054,-0.002,-0.0015,0.0027,0.0052,0.0057,0.0104,0.0117,0.013,0.0208,0.0241,0.0311,0.0393,0.0446,0.0473,0.0475,0.0533,0.0526,0.0524,0.0506,0.0545,0.0544,0.0542,0.0557,0.0556,0.0556,0,0,-0.0101,-0.0063,-0.007,-0.005,-0.0014,0.0022,0.0022,0.0072,0.0102,0.0146,0.0216,0.0286,0.0367,0.0433,0.0477,0.0501,0.0526,0.0522,0.0477,0.0515,0.0513,0.0512,0.0534,0.0535,0.0516,0.0516,0.0516,0,-0.0136,-0.013,-0.0073,-0.0079,-0.0069,-0.0001,-0.0015,0.0028,0.0092,0.012,0.0145,0.029,0.0362,0.0441,0.0455,0.0496,0.0509,0.0474,0.0509,0.0508,0.0508,0.0531,0.0533,0.0513,0.0514,0.0514,0.0514,0,-0.0183,-0.0186,-0.0193,-0.0168,-0.0149,-0.0151,-0.0086,-0.0057,-0.0005,0.0046,0.013,0.0237,0.0318,0.0364,0.0418,0.0464,0.0472,0.0502,0.0502,0.0502,0.0528,0.0531,0.0509,0.051,0.0511,0.0512,0,0,-0.0241,-0.023,-0.0231,-0.0244,-0.0197,-0.0188,-0.0158,-0.0107,-0.0084,-0.0002,0.0034,0.017,0.0228,0.0283,0.037,0.0411,0.0437,0.0443,0.0446,0.0444,0.0499,0.0547,0.0556,0.0463,0.0463,0.0464,0.0516,0,-0.0298,-0.0335,-0.0303,-0.0339,-0.0353,-0.0287,-0.0263,-0.0203,-0.0132,-0.0077,0.0046,0.0119,0.0199,0.0245,0.0298,0.0415,0.0442,0.0419,0.0518,0.052,0.0546,0.056,0.0586,0.0638,0.0519,0.052,0.052,0,-0.0346,-0.0365,-0.0411,-0.0418,-0.0417,-0.042,-0.0366,-0.0337,-0.0233,-0.0177,-0.0088,0.0009,0.0116,0.017,0.0327,0.0303,0.038,0.0458,0.0462,0.0526,0.0575,0.0623,0.0648,0.0786,0.0525,0.0525,0.0525,0,-0.04,-0.0436,-0.0474,-0.0479,-0.047,-0.0472,-0.0454,-0.0368,-0.0335,-0.0241,-0.0204,-0.0071,0.0006,0.0119,0.03,0.0302,0.0453,0.0481,0.0589,0.0593,0.0644,0.0653,0.0795,0.055,0.055,0.055,0.0549,0,-0.0457,-0.0492,-0.0508,-0.0533,-0.0573,-0.0538,-0.0543,-0.0499,-0.0428,-0.039,-0.0263,-0.0199,-0.0007,0.012,0.0259,0.0444,0.0422,0.0575,0.0612,0.0626,0.0631,0.0778,0.0834,0.0551,0.0551,0.0551,0.055,0,-0.0502,-0.0513,-0.0572,-0.0594,-0.0603,-0.0628,-0.0618,-0.061,-0.0534,-0.0485,-0.0459,-0.0296,-0.012,0.0076,0.0278,0.0401,0.0656,0.0625,0.0625,0.0661,0.089,0.0941,0.1091,0.1179,0.0745,0.0747,0.0748,0,-0.0527,-0.056,-0.0623,-0.0662,-0.0678,-0.0706,-0.0716,-0.0667,-0.0651,-0.053,-0.0512,-0.0337,-0.0189,0.0128,0.0378,0.0618,0.0725,0.0761,0.078,0.0906,0.099,0.1015,0.1079,0.0821,0.0823,0.0825,0.0826,0,-0.0579,-0.0598,-0.0647,-0.073,-0.0771,-0.0811,-0.0823,-0.0824,-0.0747,-0.0683,-0.057,-0.0445,-0.0116,0.0195,0.0514,0.0654,0.0869,0.0798,0.0936,0.1065,0.1093,0.1195,0.0773,0.0839,0.0838,0.0837,0.0836,0.0836,-0.0611,-0.0661,-0.0725,-0.08,-0.0852,-0.0899,-0.0923,-0.0907,-0.0873,-0.0756,-0.0621,-0.0401,0.0051,0.0525,0.0698,0.1044,0.1004,0.1131,0.1181,0.1192,0.1289,0.0889,0.0998,0.0998,0.0998,0.0997,0.0997,0,-0.0651,-0.0706,-0.0787,-0.0879,-0.0945,-0.0951,-0.0977,-0.0967,-0.0925,-0.0771,-0.0619,-0.0114,0.0329,0.0738,0.1244,0.1421,0.1458,0.1489,0.1533,0.1582,0.1239,0.1256,0.1418,0.1417,0.1417,0.1417,0.1417,0.1417,-0.0675,-0.0758,-0.0807,-0.0932,-0.099,-0.1051,-0.1062,-0.102,-0.0913,-0.0646,-0.0366,-0.0112,0.047,0.1292,0.1746,0.1775,0.1932,0.1887,0.1986,0.1753,0.1723,0.1694,0.1726,0.1983,0.1984,0.2312,0.2316,0.2318]}],[{"header":{"parameterUnit":"m.s-1","parameterCategory":2,"la1":30.2991,"la2":30.254,"lo1":-89.0895,"lo2":-89.0444,"dy":0.0017,"dx":0.0017,"nx":28,"ny":28,"refTime":"2023-10-03T03:00:00:Z","depth":"2","parameterNumber":2,"parameterNumberName":"U-component_of_CURRENTS"},"data":[0,0,0,0,0,0,0,0,0,0,0,0,0,0,0,0,0,0,0,0,0,0,0,0,0,0,0,0,0,0,0,0,0,0,0,0,0,0,0,0,0,0,0,0,0,0,0,0,0,0,0,0,0,0,0,0,0,0,-0.1916,-0.1916,0,-0.1956,-0.1957,-0.1957,-0.1914,-0.1912,-0.1911,-0.191,-0.1896,-0.1897,-0.1898,0,0,0,0,0,0,0,0,0,0,0,0,0,-0.1861,-0.1862,-0.1916,-0.1916,-0.1917,-0.1956,-0.1957,-0.1957,-0.1914,-0.1912,-0.1911,-0.1909,-0.1896,-0.1897,-0.1898,0,0,0,0,0,0,0,0,0,0,0,0,0,-0.189,-0.1862,-0.1915,-0.1902,-0.1901,-0.1956,-0.1957,-0.1957,-0.1915,-0.1912,-0.191,-0.1908,-0.1895,-0.1897,-0.1898,-0.1953,0,0,-0.1903,-0.1904,0,0,0,0,0,0,0,0,-0.1888,-0.1892,-0.1903,-0.1903,-0.1902,-0.1929,-0.1933,-0.1954,-0.1915,-0.1908,-0.191,-0.1907,-0.1905,-0.1906,-0.1917,-0.1953,-0.1952,-0.1903,-0.1904,-0.1905,-0.1905,0,0,0,0,0,0,0,-0.1886,-0.189,-0.193,-0.1904,-0.1903,-0.1914,-0.1915,-0.1937,-0.1916,-0.1908,-0.1906,-0.1913,-0.1904,-0.1915,-0.1916,-0.1952,-0.1903,-0.1905,-0.1906,-0.1906,-0.2054,-0.2057,0,0,0,0,0,0,-0.1884,-0.1888,-0.1929,-0.1931,-0.1891,-0.1917,-0.1918,-0.1921,-0.1917,-0.1915,-0.1915,-0.1911,-0.1914,-0.1914,-0.1915,-0.2013,-0.1905,-0.1906,-0.1907,-0.2051,-0.2055,-0.2058,0,0,0,0,0,0,-0.1883,-0.1887,-0.1927,-0.1912,-0.1918,-0.192,-0.1925,-0.1923,-0.1928,-0.1923,-0.1919,-0.192,-0.1912,-0.1913,-0.1958,-0.201,-0.1907,-0.1908,-0.2048,-0.2052,-0.2056,-0.2187,0,0,0,0,0,0,-0.1881,-0.1886,-0.189,-0.1912,-0.1919,-0.1968,-0.1927,-0.1926,-0.1937,-0.1932,-0.1927,-0.1923,-0.191,-0.1956,-0.1959,-0.2011,-0.191,-0.2044,-0.205,-0.2055,-0.2179,-0.2195,-0.221,0,0,0,0,0,-0.1879,-0.1888,-0.189,-0.1895,-0.1923,-0.197,-0.1975,-0.1967,-0.194,-0.1959,-0.1965,-0.1923,-0.1993,-0.1961,-0.1964,-0.2016,-0.2041,-0.2048,-0.2055,-0.2172,-0.2192,-0.2209,0,0,0,0,0,0,-0.1861,-0.1886,-0.1887,-0.1902,-0.194,-0.1963,-0.1974,-0.1975,-0.1995,-0.1985,-0.1968,-0.1968,-0.2029,-0.2009,-0.1972,-0.2076,-0.2008,-0.2016,-0.2097,-0.2115,-0.213,-0.2085,-0.1911,0,0,0,0,0,-0.1863,-0.1875,-0.1912,-0.1925,-0.1943,-0.1962,-0.1978,-0.1983,-0.2004,-0.2008,-0.2016,-0.2027,-0.2064,-0.2075,-0.21,-0.2158,-0.209,-0.2192,-0.2208,-0.2221,-0.2188,-0.2151,-0.2159,-0.208,-0.208,-0.208,0,0,-0.1858,-0.1875,-0.188,-0.1923,-0.1943,-0.199,-0.1965,-0.1998,-0.204,-0.2007,-0.2063,-0.2084,-0.2093,-0.2166,-0.2189,-0.215,-0.2215,-0.2229,-0.224,-0.2199,-0.2159,-0.2166,-0.2172,-0.2085,-0.2084,-0.2083,0,0,-0.1863,-0.1873,-0.1891,-0.1934,-0.198,-0.2005,-0.2018,-0.2063,-0.2081,-0.2155,-0.2145,-0.2195,-0.2246,-0.227,-0.2285,-0.2398,-0.2301,-0.241,-0.2447,-0.2415,-0.2419,-0.2422,-0.2365,-0.2362,-0.2413,-0.2413,-0.2413,0,-0.186,-0.1881,-0.1907,-0.1951,-0.198,-0.2015,-0.2054,-0.2103,-0.2161,-0.2172,-0.2184,-0.2263,-0.2296,-0.2354,-0.2413,-0.2431,-0.2373,-0.2379,-0.243,-0.2432,-0.2432,-0.2373,-0.2367,-0.242,-0.2419,-0.2419,-0.2418,0,-0.1883,-0.1914,-0.1932,-0.1995,-0.204,-0.208,-0.2152,-0.2198,-0.223,-0.2263,-0.2331,-0.2391,-0.2411,-0.2469,-0.2487,-0.2525,-0.247,-0.2457,-0.2374,-0.2448,-0.2381,-0.2373,-0.243,-0.2428,-0.2426,-0.2424,0,0,-0.1832,-0.1928,-0.1931,-0.1963,-0.206,-0.2092,-0.2179,-0.2241,-0.2258,-0.2352,-0.2362,-0.25,-0.2493,-0.251,-0.2541,-0.2549,-0.256,-0.2513,-0.2508,-0.2438,-0.2452,-0.2413,-0.2399,-0.2544,-0.2543,-0.2543,-0.2409,0,-0.1837,-0.1903,-0.1957,-0.2027,-0.2066,-0.2135,-0.2203,-0.227,-0.2321,-0.2352,-0.2416,-0.2456,-0.252,-0.2532,-0.2557,-0.2552,-0.254,-0.2594,-0.2404,-0.2397,-0.2339,-0.239,-0.2233,-0.2099,-0.24,-0.2399,-0.2398,0,-0.1831,-0.1875,-0.1935,-0.202,-0.204,-0.2094,-0.2156,-0.2224,-0.2291,-0.2324,-0.2365,-0.2395,-0.2451,-0.2482,-0.248,-0.2501,-0.2478,-0.2474,-0.2468,-0.2365,-0.2343,-0.2072,-0.2072,-0.2383,-0.2384,-0.2385,-0.2386,0,-0.1753,-0.1852,-0.1885,-0.1922,-0.2037,-0.2063,-0.2116,-0.2196,-0.2234,-0.228,-0.2292,-0.2339,-0.2357,-0.235,-0.2396,-0.2412,-0.2355,-0.2364,-0.2294,-0.2289,-0.208,-0.2059,-0.2318,-0.2318,-0.2318,-0.2319,-0.2319,0,-0.1726,-0.1752,-0.1847,-0.187,-0.1904,-0.1999,-0.2029,-0.2091,-0.2149,-0.2179,-0.2252,-0.2272,-0.2324,-0.2324,-0.2339,-0.2295,-0.23,-0.2281,-0.2252,-0.2128,-0.2114,-0.2295,-0.2294,-0.2314,-0.2315,-0.2316,-0.2317,0,-0.1645,-0.171,-0.1754,-0.1847,-0.1875,-0.1894,-0.1984,-0.2004,-0.2072,-0.2103,-0.2116,-0.2195,-0.2199,-0.2234,-0.2216,-0.2214,-0.2182,-0.2158,-0.2008,-0.1966,-0.2139,-0.2147,-0.2029,-0.2027,-0.2024,-0.2023,-0.2021,0,-0.1614,-0.1625,-0.1711,-0.173,-0.1772,-0.1819,-0.1854,-0.195,-0.1981,-0.2066,-0.207,-0.2092,-0.2106,-0.2066,-0.2051,-0.2003,-0.2099,-0.1835,-0.186,-0.2125,-0.2109,-0.2121,-0.2131,-0.163,-0.1626,-0.1622,-0.1619,0,-0.1544,-0.1568,-0.1603,-0.1639,-0.1675,-0.1715,-0.1775,-0.1788,-0.1897,-0.1924,-0.1956,-0.1962,-0.1951,-0.185,-0.1813,-0.1778,-0.1836,-0.1758,-0.2035,-0.1758,-0.1747,-0.1733,-0.1756,-0.1586,-0.1589,-0.1592,-0.1593,-0.1595,-0.1477,-0.1477,-0.1512,-0.1536,-0.1575,-0.159,-0.1581,-0.165,-0.167,-0.1696,-0.1783,-0.1749,-0.1758,-0.1621,-0.1555,-0.1502,-0.1626,-0.1562,-0.1573,-0.1589,-0.1597,-0.1586,-0.1393,-0.1395,-0.1397,-0.1399,-0.14,0,-0.1385,-0.1392,-0.1409,-0.143,-0.1417,-0.1477,-0.1509,-0.1479,-0.1461,-0.152,-0.1524,-0.1395,-0.1334,-0.1353,-0.122,-0.1202,-0.1192,-0.1156,-0.1141,-0.1174,-0.1203,-0.1193,-0.0881,-0.088,-0.0879,-0.0877,0,0,-0.1339,-0.1308,-0.1314,-0.1258,-0.127,-0.1217,-0.1205,-0.1181,-0.1193,-0.1149,-0.1144,-0.1257,-0.1309,-0.11,-0.1047,-0.0942,-0.1047,-0.0895,-0.1307,-0.1321,-0.1349,-0.1429,-0.145,0,0,0,0,0]},{"header":{"parameterUnit":"m.s-1","parameterCategory":2,"la1":30.2991,"la2":30.254,"lo1":-89.0895,"lo2":-89.0444,"dy":0.0017,"dx":0.0017,"nx":28,"ny":28,"refTime":"2023-10-03T03:00:00:Z","depth":"2","parameterNumber":3,"parameterNumberName":"V-component_of_CURRENTS"},"data":[0,0,0,0,0,0,0,0,0,0,0,0,0,0,0,0,0,0,0,0,0,0,0,0,0,0,0,0,0,0,0,0,0,0,0,0,0,0,0,0,0,0,0,0,0,0,0,0,0,0,0,0,0,0,0,0,0,0,0.0048,0.0048,0,0.0117,0.0117,0.0118,0.0162,0.0162,0.0163,0.0163,0.0256,0.0258,0.026,0,0,0,0,0,0,0,0,0,0,0,0,0,-0.0046,-0.0045,0.0047,0.0048,0.0049,0.0116,0.0117,0.0118,0.0162,0.0162,0.0163,0.0163,0.0255,0.0257,0.026,0,0,0,0,0,0,0,0,0,0,0,0,0,0.0006,-0.0044,0.0047,0.0079,0.0083,0.0116,0.0117,0.0119,0.0162,0.0162,0.0163,0.0163,0.0254,0.0257,0.026,0.0273,0,0,0.0271,0.0272,0,0,0,0,0,0,0,0,0.0003,0.0009,0.0074,0.0077,0.0081,0.0131,0.0118,0.0172,0.0162,0.0132,0.0163,0.0163,0.0216,0.0222,0.0234,0.0278,0.0282,0.0271,0.0273,0.0274,0.0275,0,0,0,0,0,0,0,-0.0001,0.0006,0.0075,0.0074,0.0079,0.009,0.0098,0.0129,0.0171,0.0134,0.0138,0.0145,0.0218,0.0231,0.0237,0.0283,0.0271,0.0274,0.0276,0.0277,0.0378,0.0379,0,0,0,0,0,0,-0.001,0.0003,0.0073,0.0077,0.0042,0.0091,0.01,0.0115,0.017,0.0179,0.0145,0.0147,0.0225,0.0233,0.024,0.0269,0.0274,0.0278,0.0279,0.0377,0.0378,0.0379,0,0,0,0,0,0,-0.0012,-0.0004,0.007,0.0041,0.0051,0.0093,0.0108,0.0116,0.0127,0.0178,0.0187,0.0148,0.0225,0.0235,0.0273,0.0272,0.0279,0.0282,0.0376,0.0378,0.0378,0.032,0,0,0,0,0,0,-0.0015,-0.0005,-0.0003,0.0041,0.0053,0.0077,0.0108,0.0117,0.0131,0.0135,0.0184,0.0193,0.0226,0.0267,0.0276,0.0277,0.0285,0.0376,0.0377,0.0378,0.0321,0.0318,0.0317,0,0,0,0,0,-0.0018,-0.0021,-0.0003,0.0005,0.0056,0.0077,0.0083,0.0114,0.0131,0.0127,0.0173,0.0192,0.0282,0.027,0.028,0.0282,0.0375,0.0377,0.0378,0.0322,0.0319,0.0317,0,0,0,0,0,0,-0.007,-0.0015,0.0005,0.0017,0.004,0.0084,0.0083,0.0108,0.014,0.0146,0.0197,0.0209,0.0245,0.0274,0.026,0.0318,0.0333,0.0336,0.0287,0.0284,0.0282,0.0256,0.0287,0,0,0,0,0,-0.0078,-0.006,-0.0015,-0.0009,0.0002,0.0042,0.0053,0.0075,0.0112,0.0126,0.0163,0.0211,0.0259,0.0278,0.0319,0.0344,0.037,0.0355,0.0353,0.0351,0.0338,0.0386,0.0386,0.0384,0.0384,0.0384,0,0,-0.01,-0.0065,-0.0058,-0.0019,0.0003,0.0004,0.0049,0.006,0.0065,0.0131,0.0147,0.0202,0.0266,0.03,0.0318,0.0322,0.0366,0.0353,0.035,0.0339,0.0387,0.0387,0.0387,0.0385,0.0385,0.0385,0,0,-0.0142,-0.0102,-0.0107,-0.009,-0.0059,-0.003,-0.003,0.0011,0.0035,0.0061,0.012,0.0175,0.0227,0.0281,0.0315,0.0326,0.0355,0.034,0.0303,0.035,0.0349,0.035,0.0378,0.0381,0.0336,0.0336,0.0336,0,-0.0175,-0.0166,-0.0111,-0.0117,-0.0111,-0.005,-0.0067,-0.0035,0.0012,0.0035,0.0054,0.0166,0.0219,0.0282,0.029,0.032,0.0341,0.0303,0.0344,0.0345,0.0346,0.0375,0.0379,0.0333,0.0334,0.0334,0.0334,0,-0.0217,-0.022,-0.0225,-0.0205,-0.0191,-0.0196,-0.0144,-0.0124,-0.0083,-0.0042,0.0024,0.0109,0.0174,0.0209,0.0252,0.0296,0.0307,0.0335,0.0342,0.0342,0.0374,0.0379,0.033,0.0331,0.0331,0.0332,0,0,-0.0267,-0.0259,-0.026,-0.0275,-0.0237,-0.0233,-0.0216,-0.0178,-0.0158,-0.0096,-0.0064,0.0038,0.0094,0.0137,0.0211,0.0257,0.0293,0.029,0.0293,0.0301,0.0377,0.0406,0.0415,0.0323,0.0324,0.0324,0.0392,0,-0.0322,-0.0358,-0.033,-0.0371,-0.0388,-0.0331,-0.0319,-0.0272,-0.0212,-0.0165,-0.0058,0.0002,0.0066,0.0107,0.0162,0.0271,0.0305,0.0271,0.0389,0.0392,0.0406,0.0422,0.0385,0.0445,0.0398,0.0399,0.0399,0,-0.0366,-0.0386,-0.0434,-0.0448,-0.0448,-0.0457,-0.0414,-0.0396,-0.0303,-0.0255,-0.0173,-0.0086,0.0013,0.0059,0.0214,0.0187,0.0264,0.0339,0.0344,0.0393,0.0432,0.0441,0.0457,0.0409,0.0408,0.0407,0.0407,0,-0.0417,-0.0455,-0.0496,-0.0502,-0.0503,-0.0508,-0.0497,-0.0423,-0.0398,-0.0307,-0.027,-0.0145,-0.0072,0.0042,0.0206,0.0207,0.0364,0.0389,0.0481,0.0484,0.0487,0.0489,0.0469,0.0469,0.0469,0.0469,0.0468,0,-0.0471,-0.0508,-0.0527,-0.0554,-0.0596,-0.0568,-0.0577,-0.054,-0.0474,-0.044,-0.0321,-0.0259,-0.0075,0.005,0.0179,0.0353,0.0345,0.0473,0.0507,0.0467,0.0466,0.0463,0.0462,0.0471,0.0471,0.047,0.047,0,-0.0514,-0.0527,-0.0587,-0.0615,-0.0624,-0.0652,-0.0648,-0.0642,-0.0572,-0.0523,-0.0497,-0.034,-0.0171,0.0012,0.0214,0.0324,0.0483,0.0536,0.0469,0.0495,0.0571,0.0566,0.0643,0.0645,0.0647,0.0648,0.0649,0,-0.0539,-0.0572,-0.0637,-0.0676,-0.0694,-0.0726,-0.0738,-0.0695,-0.0679,-0.0563,-0.0542,-0.0373,-0.0234,0.0069,0.0292,0.0516,0.0519,0.0595,0.0598,0.0565,0.0591,0.0584,0.0577,0.0575,0.0575,0.0576,0.0576,0,-0.0589,-0.0609,-0.0659,-0.074,-0.0782,-0.0823,-0.0837,-0.0837,-0.0765,-0.0702,-0.059,-0.0471,-0.017,0.0089,0.0378,0.0499,0.0561,0.0608,0.0602,0.0539,0.0508,0.0531,0.0525,0.0578,0.0578,0.0578,0.0578,0.0578,-0.0621,-0.067,-0.0733,-0.0807,-0.0858,-0.0903,-0.0927,-0.0911,-0.0877,-0.0762,-0.0638,-0.0437,-0.018,0.0239,0.0444,0.0622,0.0624,0.0662,0.0658,0.0655,0.0637,0.061,0.0696,0.0696,0.0697,0.0697,0.0697,0,-0.066,-0.0713,-0.0792,-0.0881,-0.0942,-0.0952,-0.0976,-0.0965,-0.092,-0.0779,-0.0638,-0.035,-0.0045,0.0213,0.051,0.0692,0.0668,0.0702,0.0641,0.0637,0.0634,0.0613,0.0667,0.0668,0.0668,0.0669,0,0,-0.0684,-0.0764,-0.0809,-0.0927,-0.0983,-0.104,-0.105,-0.1007,-0.091,-0.0772,-0.0612,-0.0367,-0.004,0.0168,0.0395,0.0543,0.0536,0.0543,0.0546,0.0443,0.0438,0.059,0.0551,0,0,0,0,0]}],[{"header":{"parameterUnit":"m.s-1","parameterCategory":2,"la1":30.2991,"la2":30.254,"lo1":-89.0895,"lo2":-89.0444,"dy":0.0017,"dx":0.0017,"nx":28,"ny":28,"refTime":"2023-10-03T03:00:00:Z","depth":"4","parameterNumber":2,"parameterNumberName":"U-component_of_CURRENTS"},"data":[0,0,0,0,0,0,0,0,0,0,0,0,0,0,0,0,0,0,0,0,0,0,0,0,0,0,0,0,0,0,0,0,0,0,0,0,0,0,0,0,0,0,0,0,0,0,0,0,0,0,0,0,0,0,0,0,0,0,-0.1378,-0.1379,0,-0.1418,-0.1418,-0.1418,-0.1431,-0.1431,-0.1431,-0.1431,-0.1345,-0.1342,-0.134,0,0,0,0,0,0,0,0,0,0,0,0,0,-0.1194,-0.1198,-0.1378,-0.1379,-0.138,-0.1418,-0.1418,-0.1418,-0.1431,-0.1431,-0.1431,-0.1431,-0.1346,-0.1343,-0.134,0,0,0,0,0,0,0,0,0,0,0,0,0,-0.1254,-0.1199,-0.1378,-0.1394,-0.1396,-0.1418,-0.1418,-0.1418,-0.1431,-0.1431,-0.1431,-0.1432,-0.1347,-0.1343,-0.1339,-0.1309,0,0,-0.1328,-0.1326,0,0,0,0,0,0,0,0,-0.1251,-0.126,-0.1391,-0.1393,-0.1396,-0.1424,-0.1322,-0.1377,-0.143,-0.1413,-0.1431,-0.1432,-0.1362,-0.1357,-0.1359,-0.1305,-0.1301,-0.1327,-0.1325,-0.1323,-0.1322,0,0,0,0,0,0,0,-0.1247,-0.1258,-0.1389,-0.1392,-0.1395,-0.1359,-0.1369,-0.1332,-0.1379,-0.1414,-0.1416,-0.1428,-0.1362,-0.1363,-0.1357,-0.13,-0.1327,-0.1324,-0.1322,-0.132,-0.129,-0.1291,0,0,0,0,0,0,-0.1258,-0.1255,-0.1388,-0.1391,-0.1328,-0.1363,-0.1373,-0.1411,-0.1382,-0.1381,-0.1428,-0.1429,-0.1369,-0.1361,-0.1354,-0.1387,-0.1323,-0.132,-0.1318,-0.1288,-0.129,-0.1292,0,0,0,0,0,0,-0.1254,-0.127,-0.1386,-0.1325,-0.1338,-0.1367,-0.1408,-0.1411,-0.1437,-0.1395,-0.139,-0.1454,-0.1369,-0.1359,-0.1335,-0.1381,-0.1318,-0.1315,-0.1287,-0.1289,-0.1291,-0.1407,0,0,0,0,0,0,-0.1249,-0.1269,-0.1308,-0.1328,-0.1343,-0.1418,-0.1408,-0.1412,-0.1445,-0.1447,-0.1415,-0.1406,-0.1369,-0.1341,-0.1331,-0.1374,-0.1312,-0.1285,-0.1288,-0.129,-0.1402,-0.1413,-0.1423,0,0,0,0,0,-0.1243,-0.129,-0.131,-0.1327,-0.1394,-0.1419,-0.1424,-0.1439,-0.1446,-0.1463,-0.1435,-0.1408,-0.1353,-0.1338,-0.1327,-0.137,-0.1283,-0.1287,-0.129,-0.1397,-0.1411,-0.1423,0,0,0,0,0,0,-0.1222,-0.1297,-0.1319,-0.1386,-0.1412,-0.1424,-0.1446,-0.1456,-0.1452,-0.1455,-0.1409,-0.1398,-0.1406,-0.1363,-0.1349,-0.1371,-0.1321,-0.1322,-0.1406,-0.1419,-0.1429,-0.1439,-0.1309,0,0,0,0,0,-0.124,-0.1304,-0.1346,-0.14,-0.1417,-0.1437,-0.1454,-0.1468,-0.1465,-0.1466,-0.1443,-0.1419,-0.1408,-0.1392,-0.1372,-0.1364,-0.1337,-0.1389,-0.14,-0.141,-0.1411,-0.1424,-0.1436,-0.1302,-0.1302,-0.1302,0,0,-0.1245,-0.1297,-0.1332,-0.1401,-0.1422,-0.1451,-0.1448,-0.1485,-0.1508,-0.1452,-0.1469,-0.1456,-0.1416,-0.1423,-0.1423,-0.1392,-0.1433,-0.1414,-0.1422,-0.1418,-0.1428,-0.1441,-0.1453,-0.1305,-0.1304,-0.1304,0,0,-0.1266,-0.1335,-0.1383,-0.1414,-0.1465,-0.1479,-0.1498,-0.1524,-0.1539,-0.1547,-0.153,-0.1537,-0.1502,-0.1496,-0.1483,-0.1535,-0.1497,-0.1541,-0.1593,-0.1607,-0.1618,-0.1628,-0.1609,-0.1616,-0.1538,-0.1539,-0.1539,0,-0.1261,-0.1339,-0.1394,-0.1436,-0.1461,-0.1496,-0.1524,-0.1548,-0.1563,-0.1573,-0.1565,-0.1563,-0.1539,-0.1555,-0.1586,-0.1562,-0.1552,-0.155,-0.1623,-0.1631,-0.1639,-0.1618,-0.1624,-0.1544,-0.1544,-0.1543,-0.1543,0,-0.1309,-0.1369,-0.1395,-0.1469,-0.1503,-0.1536,-0.1576,-0.1609,-0.163,-0.1646,-0.1677,-0.1654,-0.165,-0.1664,-0.1639,-0.1694,-0.1664,-0.1645,-0.1593,-0.166,-0.1632,-0.1637,-0.1553,-0.1551,-0.1549,-0.1548,0,0,-0.1285,-0.1403,-0.1412,-0.1442,-0.1524,-0.1544,-0.1604,-0.1649,-0.1679,-0.1712,-0.1738,-0.176,-0.1766,-0.1753,-0.1742,-0.1761,-0.1817,-0.1737,-0.1735,-0.1724,-0.1834,-0.1709,-0.1701,-0.1822,-0.1823,-0.1824,-0.1792,0,-0.1292,-0.1365,-0.1432,-0.1486,-0.1514,-0.1577,-0.1622,-0.1676,-0.1712,-0.1747,-0.177,-0.1787,-0.1795,-0.1799,-0.1831,-0.1816,-0.1835,-0.1826,-0.1765,-0.1762,-0.1648,-0.1704,-0.1829,-0.1795,-0.1796,-0.1796,-0.1797,0,-0.1307,-0.1352,-0.1409,-0.1486,-0.1505,-0.1549,-0.1621,-0.1666,-0.1741,-0.1768,-0.1817,-0.1831,-0.1874,-0.1864,-0.1893,-0.1891,-0.1881,-0.1868,-0.1866,-0.1709,-0.1646,-0.1712,-0.1804,-0.1803,-0.1803,-0.1802,-0.1802,0,-0.1241,-0.1331,-0.1372,-0.1402,-0.1498,-0.1535,-0.1587,-0.1671,-0.1705,-0.1782,-0.1809,-0.1866,-0.1877,-0.1902,-0.19,-0.1904,-0.1911,-0.1898,-0.1772,-0.1762,-0.1832,-0.1822,-0.1922,-0.1922,-0.1922,-0.1922,-0.1922,0,-0.1212,-0.1245,-0.1346,-0.1365,-0.141,-0.1494,-0.1547,-0.1611,-0.1691,-0.173,-0.1812,-0.1832,-0.1895,-0.1908,-0.191,-0.1847,-0.1917,-0.1785,-0.1753,-0.188,-0.1876,-0.1834,-0.1825,-0.1921,-0.1921,-0.1921,-0.1922,0,-0.1137,-0.1211,-0.1254,-0.135,-0.1383,-0.1413,-0.1519,-0.1552,-0.1643,-0.1695,-0.172,-0.1809,-0.1822,-0.1855,-0.1867,-0.1824,-0.1791,-0.1751,-0.1871,-0.1845,-0.163,-0.1627,-0.1602,-0.1597,-0.1594,-0.159,-0.1588,0,-0.1105,-0.1124,-0.1222,-0.1249,-0.1297,-0.136,-0.1405,-0.1513,-0.1551,-0.1664,-0.1673,-0.1722,-0.1768,-0.1674,-0.1731,-0.17,-0.1689,-0.1657,-0.1667,-0.163,-0.1601,-0.1604,-0.1606,-0.1582,-0.1581,-0.158,-0.1579,0,-0.1027,-0.1076,-0.1111,-0.1164,-0.1215,-0.1264,-0.1337,-0.135,-0.1471,-0.1567,-0.1576,-0.1581,-0.1584,-0.1588,-0.1568,-0.1557,-0.1673,-0.1617,-0.1625,-0.1634,-0.1605,-0.1581,-0.1587,-0.1565,-0.1567,-0.1569,-0.1569,0,-0.0965,-0.0973,-0.1026,-0.1063,-0.1124,-0.1146,-0.1201,-0.1244,-0.1292,-0.1429,-0.1426,-0.1488,-0.1564,-0.1512,-0.1503,-0.1471,-0.1454,-0.1414,-0.1433,-0.1448,-0.1415,-0.1356,-0.1214,0,0,0,0,0,-0.0889,-0.0895,-0.0921,-0.0957,-0.1013,-0.1047,-0.1146,-0.1208,-0.1328,-0.1294,-0.1356,-0.1358,-0.1343,-0.1377,-0.1309,-0.1431,-0.1457,-0.1348,-0.1421,-0.1492,-0.1507,-0.1484,0,0,0,0,0,0,-0.0838,-0.0866,-0.088,-0.0854,-0.0861,-0.091,-0.0968,-0.1055,-0.1048,-0.1175,-0.1169,-0.1266,-0.1265,-0.1348,-0.1274,-0.1284,-0.1301,-0.1394,-0.139,-0.1483,-0.1497,-0.1509,-0.1491,0,0,0,0,0]},{"header":{"parameterUnit":"m.s-1","parameterCategory":2,"la1":30.2991,"la2":30.254,"lo1":-89.0895,"lo2":-89.0444,"dy":0.0017,"dx":0.0017,"nx":28,"ny":28,"refTime":"2023-10-03T03:00:00:Z","depth":"4","parameterNumber":3,"parameterNumberName":"V-component_of_CURRENTS"},"data":[0,0,0,0,0,0,0,0,0,0,0,0,0,0,0,0,0,0,0,0,0,0,0,0,0,0,0,0,0,0,0,0,0,0,0,0,0,0,0,0,0,0,0,0,0,0,0,0,0,0,0,0,0,0,0,0,0,0,0.0039,0.004,0,0.0087,0.0088,0.0088,0.0124,0.0125,0.0125,0.0126,0.0158,0.0159,0.0159,0,0,0,0,0,0,0,0,0,0,0,0,0,-0.0036,-0.0034,0.0039,0.004,0.004,0.0087,0.0088,0.0089,0.0124,0.0125,0.0125,0.0126,0.0158,0.0159,0.0159,0,0,0,0,0,0,0,0,0,0,0,0,0,0.0002,-0.0034,0.0039,0.0064,0.0067,0.0087,0.0088,0.0089,0.0124,0.0125,0.0125,0.0126,0.0158,0.0159,0.0159,0.0152,0,0,0.0162,0.0162,0,0,0,0,0,0,0,0,0.0,0.0005,0.006,0.0063,0.0066,0.0101,0.0074,0.0109,0.0124,0.0102,0.0126,0.0126,0.0138,0.014,0.0147,0.0154,0.0155,0.0162,0.0162,0.0163,0.0163,0,0,0,0,0,0,0,-0.0002,0.0003,0.0057,0.0061,0.0064,0.0069,0.0075,0.0081,0.0115,0.0104,0.0107,0.0113,0.0139,0.0146,0.0148,0.0156,0.0162,0.0162,0.0163,0.0163,0.0167,0.0166,0,0,0,0,0,0,-0.0006,0.0001,0.0056,0.0059,0.0035,0.007,0.0077,0.0089,0.0115,0.012,0.0113,0.0115,0.0145,0.0147,0.0149,0.0142,0.0163,0.0163,0.0164,0.0167,0.0166,0.0166,0,0,0,0,0,0,-0.0008,-0.0002,0.0054,0.0031,0.0039,0.0071,0.0084,0.0089,0.0098,0.0122,0.0127,0.0116,0.0145,0.0148,0.0153,0.0143,0.0164,0.0164,0.0167,0.0167,0.0166,0.0127,0,0,0,0,0,0,-0.001,-0.0003,-0.0001,0.0031,0.004,0.0057,0.0083,0.009,0.0102,0.0105,0.0127,0.0131,0.0146,0.0152,0.0154,0.0145,0.0165,0.0168,0.0167,0.0166,0.0129,0.0125,0.0122,0,0,0,0,0,-0.0013,-0.0013,-0.0001,0.0006,0.0044,0.0057,0.0061,0.0086,0.0101,0.0097,0.0117,0.013,0.0149,0.0152,0.0155,0.0145,0.0168,0.0167,0.0166,0.013,0.0126,0.0122,0,0,0,0,0,0,-0.0049,-0.0009,0.0006,0.0017,0.0032,0.0063,0.0063,0.0082,0.0095,0.0098,0.0124,0.0129,0.013,0.0142,0.0145,0.0145,0.0161,0.0161,0.0133,0.0129,0.0125,0.0118,0.0166,0,0,0,0,0,-0.0055,-0.0043,-0.001,-0.0005,0.0003,0.0032,0.004,0.0057,0.0076,0.0083,0.0098,0.0115,0.0128,0.0132,0.0143,0.0139,0.0174,0.0135,0.0132,0.0129,0.0125,0.0186,0.0189,0.0163,0.0163,0.0163,0,0,-0.0071,-0.0045,-0.0041,-0.0012,0.0004,-0.0001,0.0038,0.0046,0.0043,0.0083,0.0078,0.0102,0.0125,0.0125,0.0127,0.0134,0.0152,0.0128,0.0125,0.0123,0.0186,0.0189,0.0191,0.0163,0.0163,0.0163,0,0,-0.0102,-0.0071,-0.0076,-0.0066,-0.0043,-0.0026,-0.0025,0.0002,0.0015,0.0014,0.0048,0.0067,0.0075,0.0097,0.0108,0.0092,0.0134,0.0094,0.0068,0.0128,0.0131,0.0134,0.0171,0.0177,0.009,0.009,0.009,0,-0.0124,-0.0121,-0.0079,-0.0086,-0.0085,-0.0041,-0.0059,-0.0041,-0.0018,-0.0006,0.0003,0.0046,0.0061,0.0083,0.0075,0.0084,0.0122,0.0081,0.0125,0.0129,0.0132,0.017,0.0177,0.0088,0.0088,0.0088,0.0089,0,-0.0157,-0.0162,-0.0166,-0.0158,-0.0152,-0.0159,-0.0129,-0.0121,-0.0099,-0.0074,-0.0046,-0.001,0.0019,0.0026,0.004,0.0074,0.0092,0.0117,0.0136,0.0133,0.0172,0.0181,0.0085,0.0086,0.0087,0.0087,0,0,-0.0188,-0.0191,-0.0193,-0.0209,-0.0191,-0.0191,-0.0191,-0.0173,-0.0162,-0.0131,-0.011,-0.0081,-0.0039,-0.0023,0.0015,0.0059,0.0109,0.0092,0.0096,0.0129,0.0233,0.021,0.0218,0.0151,0.0153,0.0154,0.0246,0,-0.0231,-0.0265,-0.025,-0.0293,-0.031,-0.0275,-0.0279,-0.0252,-0.0217,-0.0186,-0.0122,-0.0093,-0.0062,-0.0041,0.001,0.0091,0.0133,0.0081,0.023,0.0234,0.0216,0.0227,0.0159,0.0252,0.0255,0.0256,0.0257,0,-0.0265,-0.0285,-0.0333,-0.0356,-0.0359,-0.0376,-0.0357,-0.0354,-0.029,-0.0258,-0.0198,-0.0138,-0.007,-0.0042,0.0098,0.0068,0.0138,0.02,0.0206,0.0205,0.0227,0.026,0.0274,0.0273,0.0272,0.027,0.0269,0,-0.03,-0.0341,-0.0383,-0.0392,-0.0407,-0.042,-0.0423,-0.0376,-0.0364,-0.0294,-0.0266,-0.0164,-0.0113,0.0001,0.012,0.0119,0.0276,0.0296,0.034,0.0339,0.035,0.0346,0.039,0.039,0.0389,0.0389,0.0389,0,-0.0339,-0.0376,-0.0407,-0.0432,-0.0478,-0.0467,-0.0488,-0.0465,-0.042,-0.0397,-0.0305,-0.0255,-0.0097,0.0013,0.0121,0.0255,0.0283,0.0335,0.0365,0.0328,0.0321,0.0356,0.0351,0.0393,0.0392,0.0391,0.0391,0,-0.0365,-0.0387,-0.0444,-0.0483,-0.0498,-0.053,-0.0547,-0.0547,-0.05,-0.0462,-0.044,-0.0312,-0.0166,-0.0014,0.0172,0.0246,0.0381,0.0417,0.0351,0.0375,0.0401,0.0393,0.0482,0.0482,0.0482,0.0482,0.0482,0,-0.0379,-0.0411,-0.0484,-0.0523,-0.0548,-0.059,-0.061,-0.059,-0.0579,-0.0491,-0.047,-0.0332,-0.0232,0.0013,0.0165,0.0371,0.0392,0.0451,0.0436,0.0393,0.0413,0.0405,0.0397,0.0482,0.0482,0.0482,0.0482,0,-0.0408,-0.0437,-0.0483,-0.0565,-0.0613,-0.0659,-0.0684,-0.0681,-0.0634,-0.0593,-0.0478,-0.0339,-0.0181,0.0009,0.0162,0.0309,0.0413,0.0452,0.0453,0.0439,0.0394,0.0412,0.0404,0.0482,0.0482,0.0482,0.0482,0,-0.0425,-0.0468,-0.053,-0.0599,-0.0663,-0.0704,-0.0718,-0.0693,-0.0673,-0.0566,-0.0529,-0.0344,-0.0232,-0.0024,0.0123,0.0261,0.0294,0.0328,0.0336,0.0338,0.0264,0.0184,0.0235,0,0,0,0,0,-0.0436,-0.0486,-0.0558,-0.0635,-0.0695,-0.0729,-0.075,-0.0746,-0.0699,-0.0623,-0.0571,-0.0417,-0.0181,-0.0075,0.0059,0.011,0.0302,0.0268,0.0341,0.0483,0.0483,0.0418,0,0,0,0,0,0,-0.0444,-0.0514,-0.0558,-0.0642,-0.0694,-0.0753,-0.0769,-0.0742,-0.0691,-0.0622,-0.0495,-0.0401,-0.0175,-0.0256,0.0058,0.0101,0.0161,0.0388,0.039,0.0483,0.0483,0.0483,0.0416,0,0,0,0,0]}]]